sat.trackr.live / text

‹ back to catalog

STARLINK-37112

NORAD 68707 · 2026-081J

PAYLOAD ACTIVE UNKNOWN

§ Identity

Operator
Country
US
Launch date
2026-04-14
Launch site
AFETR
Launch vehicle
Mass (kg)
RCS (m²)

Purposes: comms

External: N2YO · Heavens-Above · Gunter

§ Orbital elements

Epoch: 2026-09-19T12:11:36.395232Z

Period
93.85 min
Inclination
53.1589°
Eccentricity
0.0001169
Mean motion
15.34398396 rev/d
Perigee alt
461.9 km
Apogee alt
463.5 km
Semi-major
6,840.8 km
B*
7.9004e-4
RAAN
210.5501°
Arg perigee
98.4271°
Mean anomaly
261.6865°
Rev number
2,446

§ Raw data

STARLINK-371121 68707U 26081J   26262.50806013  .00026409  00000+0  79004-3 0  99992 68707  53.1589 210.5501 0001169  98.4271 261.6865 15.34398396 24464

JSON: /api/v1/satellites/68707 · /tle

For live sub-satellite position, see the globe view (requires WebGL).

§ Visibility from observer

Set your observer location to see the next 7 days of passes ≥ 10°. The values pass through the URL so the page stays shareable.

No JS? Fill the form by hand. The geolocation button needs JavaScript.